Regional Weather Roundup
Issued by NWS Newport/Morehead, NC

Current Version | Previous Version | Graphics & Text | Print | Product List | Glossary Off
Versions: 1 2 3 4 5 6 7 8 9 10 11 12 13 14 15 16 17 18 19 20 21 22 23 24 25 26 27 28 29 30 31 32 33 34 35 36 37 38 39 40 41 42 43 44 45 46 47 48 49 50

000
ASUS42 KMHX 261512
RWRMHX
WEATHER ROUNDUP FOR EASTERN NORTH CAROLINA
NATIONAL WEATHER SERVICE NEWPORT/MOREHEAD CITY NC
1100 AM EDT SUN APR 26 2015

NOTE: "FAIR" INDICATES FEW OR NO CLOUDS BELOW 12,000 FEET
WITH NO SIGNIFICANT WEATHER AND/OR OBSTRUCTIONS TO VISIBILITY

NCZ015>017-031-032-045>047-102-103-261600-
NORTH COAST

CITY           SKY/WX    TMP DP  RH WIND       PRES   REMARKS
EDENTON        CLOUDY    48  46  93 N8        29.68R
ELIZABETH CITY CLOUDY    50  46  86 N12       29.67R
KITTY HAWK     CLOUDY    50  50 100 N10G16    29.63S
MANTEO         CLOUDY    50  49  95 N16       29.64S

$$

NCZ045>047-081-094-103-104-261600-
CENTRAL COAST

CITY           SKY/WX    TMP DP  RH WIND       PRES   REMARKS
FRISCO         LGT RAIN  53  52  96 N10G20    29.60R
SWANQUARTER      N/A     52 N/A N/A VRB9      29.62S

$$

NCZ095-097-098-100-101-261600-
SOUTHERN COAST

CITY           SKY/WX    TMP DP  RH WIND       PRES   REMARKS
BEAUFORT       LGT RAIN  55  55 100 N12       29.64R
CEDAR ISLAND     N/A     54 N/A N/A N16       29.68R
JACKSONVILLE   CLOUDY    54  52  93 N7        29.65R FOG
PINEY ISLAND   LGT SNOW N/A N/A N/A N14       29.64R
WILMINGTON     CLOUDY    59  57  93 N9        29.63R


$$

NCZ011>013-027>030-043-044-078>080-089-090>093-098-261600-
COASTAL PLAIN

CITY           SKY/WX    TMP DP  RH WIND       PRES   REMARKS
AHOSKIE        CLOUDY    49  46  90 N10       29.70R
CLINTON        CLOUDY    51  51  98 N8        29.68R
ELIZABETHTOWN  CLOUDY    52  52 100 N3        29.67R FOG
GOLDSBORO      CLOUDY    51  50  96 NE6       29.65S
GREENVILLE     CLOUDY    50  48  93 NE7       29.72R
HAVELOCK       CLOUDY    54  51  90 N12       29.66R
KENANSVILLE    CLOUDY    51  49  95 N10       29.68R
KINSTON        CLOUDY    52  50  93 NE8       29.68R
NEW BERN       CLOUDY    52  49  89 N12       29.68R FOG
RICHLANDS      CLOUDY    54  48  82 N9        29.66R
ROCKY MOUNT    CLOUDY    50  48  93 N7        29.70R
WASHINGTON     CLOUDY    48  47  95 N8        29.68R FOG
WHITEVILLE     CLOUDY    56  54  91 N6        29.66R

$$

AMZ130-135-150-152-154-156-158-170-250-252-270-ANZ085-086-088-633-658-670-261600-
MARINE OBSERVATIONS

STATION/POSITION TIME  TEMP    WIND        PRES    WAVE   SWELL
                       AIR SEA DIR/SP/G            HT/PER HT/PER
                 (UTC) (F)     (DEG/KT/KT) (MB)    (FT/S) (FT/S)
CHESAPEAKE LIGHT 1400   47      30/ 14/ 15 1004.4
64 E VA BEACH    1450   54 59   20/ 17/ 21 1002.1    5/ 6   2/ 8
DUCK             1400   50 54   10/ 15/ 18 1002.5
2 E DUCK         1411      54                N/A     5/ 6
10 NE DUCK       NOT AVBL
OREGON INLET     1400   51 54  360/ 12/ 17 1002.2
HATTERAS CG      1400   55 65   20/ 14/ 16 1001.3
DIAMOND BUOY     1450   60 73  360/ 16/ 17 1001.4    4/ 7   3/ 7
CAPE LOOKOUT     1500   55     350/ 16/ 19 1002.9
BEAUFORT LAB     1400   56 63   20/  7/ 10 1001.3
27 SE WRIGHTSVLE 1400   61 72   50/ 14/ 17   N/A
5 SE WRIGHTSVLE  1408   61 65   40/ 12/ 16 1002.4
225 S CAPE HAT   1450   72 70  250/ 16/ 19 1002.9    6/ 7   2/12
41 SE CHARLESTON 1450   70 71  260/ 19/ 21 1003.0    5/ 5   2/16

$$



USA.gov is the U.S. government's official web portal to all federal, state and local government web resources and services.